Aspen, CO

1:31 PM MDT on October 22, 2017 (GMT -0600)
Aspen-Pitkin County / Sardy Field

Weather History for KASE - January, 2014

Change the Weather History Date:

Sunday, January 26, 2014

  Actual Average Record
Temperature  
Mean Temperature 26 °F 20 °F  
Max Temperature 41 °F 33 °F 50 °F (2002)
Min Temperature 11 °F 7 °F -8 °F (2004)
Degree Days  
Heating Degree Days 39 45  
Month to date heating degree days 1149 1173  
Since 1 July heating degree days 4864 4894  
Cooling Degree Days 0 0  
Month to date cooling degree days 0 0  
Year to date cooling degree days 0 0  
Moisture  
Dew Point 11 °F    
Average Humidity 55    
Maximum Humidity 76    
Minimum Humidity 34    
Precipitation  
Precipitation 0.00 in 0.03 in 0.28 in (2000)
Month to date precipitation 0.33 0.89  
Year to date precipitation 0.33 0.89  
Sea Level Pressure  
Sea Level Pressure 30.04 in    
Wind  
Wind Speed 6 mph (SSW)    
Max Wind Speed 15 mph    
Max Gust Speed 18 mph    
Visibility 10 miles    
Events      
T = Trace of Precipitation, MM = Missing Value Source: NWS Daily Summary

Daily Weather History Graph

Daily Weather History Graph

Search for Another Location

Airport or City:

Trip Planner

Search our weather history database for the weather conditions in past years. The results will help you decide how hot, cold, wet, or windy it might be!

Date:

Astronomy

Jan. 26, 2014 Rise Set
Actual Time 7:19 AM MST 5:21 PM MST
Civil Twilight 6:50 AM MST 5:50 PM MST
Nautical Twilight 6:18 AM MST 6:22 PM MST
Astronomical Twilight 5:46 AM MST 6:54 PM MST
Moon 2:59 AM MST (1/26) 1:13 PM MST (1/26)
Length of Visible Light 10h 59m
Length of Day
10h 02m
Waning Crescent, 23% of the Moon is Illuminated
Jan 26
Waning Crescent
Jan 30
New
Feb 6
First Quarter
Feb 14
Full
Feb 22
Last Quarter

Hourly Weather History & Observations

Time (MST) Temp. Windchill Dew Point Humidity Pressure Visibility Wind Dir Wind Speed Gust Speed Precip Events Conditions
12:53 AM 16.0 °F 5.3 °F 8.1 °F 71% 30.13 in 10.0 mi South 8.1 mph - N/A   Clear
1:53 AM 16.0 °F 4.4 °F 7.0 °F 68% 30.09 in 10.0 mi South 9.2 mph - N/A   Clear
2:53 AM 18.0 °F 6.1 °F 8.1 °F 65% 30.05 in 10.0 mi South 10.4 mph - N/A   Clear
3:53 AM 16.0 °F 4.4 °F 7.0 °F 68% 30.06 in 10.0 mi South 9.2 mph - N/A   Clear
4:53 AM 14.0 °F 5.1 °F 6.1 °F 71% 30.09 in 10.0 mi SSW 5.8 mph - N/A   Clear
5:53 AM 14.0 °F 8.2 °F 7.0 °F 74% 30.13 in 10.0 mi Variable 3.5 mph - N/A   Clear
6:53 AM 12.9 °F 3.8 °F 6.1 °F 74% 30.15 in 10.0 mi SSE 5.8 mph - N/A   Clear
7:53 AM 14.0 °F - 7.0 °F 74% 30.17 in 10.0 mi Calm Calm - N/A   Clear
8:53 AM 19.9 °F 12.1 °F 10.0 °F 65% 30.16 in 10.0 mi South 5.8 mph - N/A   Clear
9:53 AM 27.0 °F 21.6 °F 12.0 °F 53% 30.11 in 10.0 mi South 4.6 mph - N/A   Clear
10:53 AM 33.1 °F - 12.9 °F 43% 30.06 in 10.0 mi Calm Calm - N/A   Clear
11:53 AM 37.9 °F 34.4 °F 12.9 °F 36% 30.01 in 10.0 mi NNW 4.6 mph - N/A   Clear
12:53 PM 39.9 °F 33.4 °F 14.0 °F 35% 29.97 in 10.0 mi NW 10.4 mph - N/A   Clear
1:53 PM 39.9 °F 33.9 °F 15.1 °F 36% 29.94 in 10.0 mi North 9.2 mph - N/A   Clear
2:53 PM 39.0 °F 31.8 °F 17.1 °F 41% 29.93 in 10.0 mi NNW 11.5 mph - N/A   Clear
3:53 PM 39.0 °F 33.4 °F 15.1 °F 38% 29.94 in 10.0 mi North 8.1 mph - N/A   Scattered Clouds
4:53 PM 33.1 °F - 17.1 °F 52% 29.98 in 10.0 mi Calm Calm - N/A   Mostly Cloudy
5:53 PM 27.0 °F - 16.0 °F 63% 30.02 in 10.0 mi Calm Calm - N/A   Scattered Clouds
6:53 PM 25.0 °F 18.1 °F 15.1 °F 66% 30.07 in 10.0 mi South 5.8 mph - N/A   Partly Cloudy
7:53 PM 25.0 °F 17.1 °F 14.0 °F 63% 30.05 in 10.0 mi SSW 6.9 mph - N/A   Overcast
8:53 PM 23.0 °F 13.9 °F 12.0 °F 63% 30.03 in 10.0 mi SSW 8.1 mph - N/A   Partly Cloudy
9:53 PM 19.9 °F 10.1 °F 10.9 °F 68% 30.00 in 10.0 mi South 8.1 mph - N/A   Scattered Clouds
10:53 PM 19.9 °F 10.1 °F 10.9 °F 68% 29.97 in 10.0 mi SSW 8.1 mph - N/A   Clear
11:53 PM 18.0 °F 11.1 °F 10.0 °F 71% 29.96 in 10.0 mi SSW 4.6 mph - N/A   Mostly Cloudy